Location: ??
(35.4032°N, 139.3073°E)
Time: 00:36:12
(UTC+00:00)

SJ 16-02 - Visible Passes

Search period start: 24 July 2024 00:00
Search period end: 03 August 2024 00:00
Orbit: 593 x 606 km, 75.0° (Epoch: 23 July)

Date Brightness Start Highest point End Pass type
(mag) Time Alt. Az. Time Alt. Az. Time Alt. Az.
24 Jul 3.8 15:00:23 10° N 15:01:53 20° N 15:01:53 20° N visible
25 Jul 3.9 15:11:22 10° NNW 15:12:36 19° N 15:12:36 19° N visible
26 Jul 4.0 15:22:35 10° NNW 15:23:21 15° NNW 15:23:21 15° NNW visible
27 Jul 4.1 13:56:28 10° NNE 13:57:23 14° NNE 13:57:23 14° NNE visible
27 Jul 4.3 15:34:05 10° NW 15:34:06 10° NW 15:34:06 10° NW visible
28 Jul 3.9 14:06:57 10° N 14:08:10 17° NNE 14:08:10 17° NNE visible
29 Jul 4.0 14:17:48 10° N 14:18:58 18° N 14:18:58 18° N visible
30 Jul 4.1 14:28:53 10° NNW 14:29:47 16° NNW 14:29:47 16° NNW visible
31 Jul 4.0 13:03:11 10° NNE 13:03:54 12° NE 13:03:54 12° NE visible
31 Jul 4.3 14:40:14 10° NNW 14:40:37 12° NW 14:40:37 12° NW visible
01 Aug 3.8 13:13:25 10° N 13:14:44 17° NNE 13:14:44 17° NNE visible
02 Aug 3.7 13:24:07 10° N 13:25:36 20° N 13:25:36 20° N visible
